| time (UTC) | temp F | wind direction | speed MPH | gust MPH | rain 1hr in | rain 24hr in | rain mn in | humidity % | barometer mb |
| 20260507192537 | 63 | 94 | 1.0 | 1.0 | 0.00 | 0.00 | 0.00 | 74 | 1013.9 |
| 20260507192031 | 63 | 77 | 2.0 | 3.0 | 0.00 | 0.00 | 0.00 | 74 | 1013.8 |
| 20260507191529 | 63 | 51 | 1.0 | 3.0 | 0.00 | 0.00 | 0.00 | 74 | 1013.8 |
| 20260507190528 | 63 | 50 | 0.0 | 2.0 | 0.00 | 0.00 | 0.00 | 74 | 1013.8 |
| 20260507185528 | 64 | 90 | 1.0 | 2.0 | 0.00 | 0.00 | 0.00 | 74 | 1013.8 |
| 20260507185030 | 64 | 92 | 1.0 | 2.0 | 0.00 | 0.00 | 0.00 | 74 | 1013.8 |
| 20260507184528 | 64 | 90 | 1.0 | 2.0 | 0.00 | 0.00 | 0.00 | 74 | 1013.7 |
| 20260507183528 | 64 | 60 | 0.0 | 0.0 | 0.00 | 0.00 | 0.00 | 73 | 1013.6 |
| 20260507182528 | 64 | 85 | 1.0 | 3.0 | 0.00 | 0.00 | 0.00 | 73 | 1013.6 |
| 20260507182031 | 65 | 90 | 1.0 | 3.0 | 0.00 | 0.00 | 0.00 | 73 | 1013.7 |
| 20260507181039 | 65 | 91 | 4.0 | 6.0 | 0.00 | 0.00 | 0.00 | 74 | 1013.4 |
| 20260507180528 | 65 | 104 | 4.0 | 6.0 | 0.00 | 0.00 | 0.00 | 74 | 1013.3 |
| 20260507180030 | 65 | 105 | 2.0 | 9.0 | 0.00 | 0.00 | 0.00 | 74 | 1013.3 |
| 20260507175528 | 65 | 91 | 6.0 | 9.0 | 0.00 | 0.00 | 0.00 | 74 | 1013.3 |
| 20260507175030 | 66 | 116 | 3.0 | 7.0 | 0.00 | 0.00 | 0.00 | 74 | 1013.1 |
| 20260507172529 | 66 | 105 | 3.0 | 9.0 | 0.00 | 0.00 | 0.00 | 71 | 1012.9 |
| 20260507172030 | 66 | 124 | 7.0 | 9.0 | 0.00 | 0.00 | 0.00 | 71 | 1012.9 |
| 20260507171528 | 66 | 96 | 5.0 | 8.0 | 0.00 | 0.00 | 0.00 | 70 | 1012.8 |
| 20260507171029 | 66 | 94 | 7.0 | 14.0 | 0.00 | 0.00 | 0.00 | 69 | 1012.9 |
| 20260507170538 | 67 | 85 | 7.0 | 14.0 | 0.00 | 0.00 | 0.00 | 68 | 1012.8 |
| 20260507170030 | 67 | 90 | 6.0 | 9.0 | 0.00 | 0.00 | 0.00 | 68 | 1012.7 |
| 20260507165533 | 67 | 92 | 5.0 | 9.0 | 0.00 | 0.00 | 0.00 | 67 | 1012.9 |
| 20260507164537 | 67 | 92 | 5.0 | 7.0 | 0.00 | 0.00 | 0.00 | 65 | 1013.0 |
| 20260507163528 | 67 | 104 | 3.0 | 9.0 | 0.00 | 0.00 | 0.00 | 63 | 1012.8 |
| 20260507163042 | 67 | 96 | 7.0 | 10.0 | 0.00 | 0.00 | 0.00 | 63 | 1013.0 |
| 20260507162033 | 67 | 92 | 6.0 | 9.0 | 0.00 | 0.00 | 0.00 | 62 | 1012.9 |
| 20260507161035 | 68 | 90 | 5.0 | 12.0 | 0.00 | 0.00 | 0.00 | 60 | 1013.0 |
| 20260507154030 | 68 | 65 | 6.0 | 9.0 | 0.00 | 0.00 | 0.00 | 57 | 1013.1 |
| 20260507153029 | 68 | 36 | 9.0 | 12.0 | 0.00 | 0.00 | 0.00 | 57 | 1013.2 |
| 20260507152529 | 68 | 42 | 6.0 | 9.0 | 0.00 | 0.00 | 0.00 | 58 | 1013.1 |
| 20260507152030 | 68 | 63 | 5.0 | 12.0 | 0.00 | 0.00 | 0.00 | 58 | 1013.2 |
| 20260507151530 | 68 | 89 | 5.0 | 9.0 | 0.00 | 0.00 | 0.00 | 58 | 1013.3 |
| 20260507151031 | 68 | 112 | 4.0 | 9.0 | 0.00 | 0.00 | 0.00 | 59 | 1013.1 |
| 20260507150528 | 68 | 45 | 9.0 | 14.0 | 0.00 | 0.00 | 0.00 | 59 | 1013.2 |
| 20260507150034 | 68 | 22 | 11.0 | 14.0 | 0.00 | 0.00 | 0.00 | 59 | 1013.1 |
| 20260507145528 | 68 | 71 | 8.0 | 13.0 | 0.00 | 0.00 | 0.00 | 58 | 1013.2 |
| 20260507145029 | 69 | 15 | 9.0 | 13.0 | 0.00 | 0.00 | 0.00 | 59 | 1013.2 |
| 20260507144528 | 69 | 53 | 8.0 | 16.0 | 0.00 | 0.00 | 0.00 | 58 | 1013.2 |
| 20260507144030 | 69 | 59 | 7.0 | 14.0 | 0.00 | 0.00 | 0.00 | 58 | 1013.1 |
| 20260507143035 | 69 | 7 | 9.0 | 15.0 | 0.00 | 0.00 | 0.00 | 58 | 1013.3 |
| 20260507142030 | 69 | 3 | 8.0 | 10.0 | 0.00 | 0.00 | 0.00 | 57 | 1013.3 |
| 20260507141529 | 69 | 68 | 6.0 | 13.0 | 0.00 | 0.00 | 0.00 | 56 | 1013.3 |
| 20260507141030 | 70 | 46 | 6.0 | 13.0 | 0.00 | 0.00 | 0.00 | 57 | 1013.2 |
| 20260507140031 | 69 | 35 | 5.0 | 9.0 | 0.00 | 0.00 | 0.00 | 56 | 1013.3 |
| 20260507135531 | 69 | 47 | 6.0 | 7.0 | 0.00 | 0.00 | 0.00 | 56 | 1013.4 |
| 20260507134528 | 70 | 69 | 9.0 | 13.0 | 0.00 | 0.00 | 0.00 | 56 | 1013.4 |
| 20260507134030 | 70 | 90 | 3.0 | 10.0 | 0.00 | 0.00 | 0.00 | 56 | 1013.4 |
| 20260507133531 | 69 | 30 | 5.0 | 10.0 | 0.00 | 0.00 | 0.00 | 56 | 1013.4 |
| 20260507133033 | 69 | 19 | 7.0 | 13.0 | 0.00 | 0.00 | 0.00 | 56 | 1013.4 |
| 20260507132528 | 69 | 49 | 6.0 | 15.0 | 0.00 | 0.00 | 0.00 | 56 | 1013.5 |
| 20260507131536 | 70 | 49 | 5.0 | 12.0 | 0.00 | 0.00 | 0.00 | 56 | 1013.5 |
| 20260507131031 | 70 | 69 | 8.0 | 9.0 | 0.00 | 0.00 | 0.00 | 55 | 1013.4 |
| 20260507130528 | 70 | 22 | 6.0 | 12.0 | 0.00 | 0.00 | 0.00 | 55 | 1013.4 |
| 20260507130029 | 70 | 45 | 9.0 | 15.0 | 0.00 | 0.00 | 0.00 | 55 | 1013.4 |
| 20260507125030 | 70 | 33 | 6.0 | 12.0 | 0.00 | 0.00 | 0.00 | 55 | 1013.4 |
| 20260507124528 | 70 | 19 | 6.0 | 13.0 | 0.00 | 0.00 | 0.00 | 55 | 1013.4 |
| 20260507124033 | 70 | 47 | 6.0 | 14.0 | 0.00 | 0.00 | 0.00 | 55 | 1013.4 |
| 20260507123532 | 70 | 32 | 6.0 | 12.0 | 0.00 | 0.00 | 0.00 | 55 | 1013.4 |
| 20260507123039 | 70 | 46 | 9.0 | 9.0 | 0.00 | 0.00 | 0.00 | 56 | 1013.4 |
| 20260507122030 | 70 | 59 | 6.0 | 10.0 | 0.00 | 0.00 | 0.00 | 56 | 1013.5 |
| 20260507121528 | 70 | 36 | 7.0 | 10.0 | 0.00 | 0.00 | 0.00 | 56 | 1013.4 |
| 20260507121031 | 69 | 21 | 7.0 | 12.0 | 0.00 | 0.00 | 0.00 | 55 | 1013.5 |
| 20260507120531 | 69 | 4 | 6.0 | 15.0 | 0.00 | 0.00 | 0.00 | 55 | 1013.6 |
| 20260507115528 | 70 | 29 | 10.0 | 14.0 | 0.00 | 0.00 | 0.00 | 56 | 1013.5 |
| 20260507115030 | 69 | 2 | 10.0 | 14.0 | 0.00 | 0.00 | 0.00 | 55 | 1013.6 |
| 20260507114030 | 69 | 40 | 8.0 | 14.0 | 0.00 | 0.00 | 0.00 | 55 | 1013.6 |
| 20260507113528 | 70 | 69 | 8.0 | 15.0 | 0.00 | 0.00 | 0.00 | 54 | 1013.5 |
| 20260507113030 | 70 | 40 | 6.0 | 12.0 | 0.00 | 0.00 | 0.00 | 54 | 1013.7 |
| 20260507112029 | 70 | 45 | 10.0 | 12.0 | 0.00 | 0.00 | 0.00 | 55 | 1013.6 |
| 20260507111538 | 70 | 45 | 7.0 | 12.0 | 0.00 | 0.00 | 0.00 | 54 | 1013.7 |
| 20260507111033 | 70 | 19 | 6.0 | 9.0 | 0.00 | 0.00 | 0.00 | 54 | 1013.6 |
| 20260507110530 | 70 | 47 | 6.0 | 14.0 | 0.00 | 0.00 | 0.00 | 54 | 1013.7 |
| 20260507110030 | 70 | 45 | 6.0 | 12.0 | 0.00 | 0.00 | 0.00 | 54 | 1013.8 |
| 20260507105529 | 71 | 29 | 6.0 | 12.0 | 0.00 | 0.00 | 0.00 | 54 | 1013.7 |
| 20260507105029 | 71 | 16 | 6.0 | 13.0 | 0.00 | 0.00 | 0.00 | 54 | 1013.8 |
| 20260507104534 | 71 | 6 | 7.0 | 13.0 | 0.00 | 0.00 | 0.00 | 54 | 1013.8 |
| 20260507104030 | 71 | 16 | 9.0 | 16.0 | 0.00 | 0.00 | 0.00 | 53 | 1013.8 |
| 20260507103529 | 71 | 16 | 10.0 | 16.0 | 0.00 | 0.00 | 0.00 | 53 | 1013.8 |
| 20260507102528 | 71 | 356 | 3.0 | 8.0 | 0.00 | 0.00 | 0.00 | 53 | 1013.6 |
| 20260507102031 | 71 | 357 | 5.0 | 10.0 | 0.00 | 0.00 | 0.00 | 54 | 1013.7 |
| 20260507101528 | 72 | 45 | 5.0 | 6.0 | 0.00 | 0.00 | 0.00 | 53 | 1013.8 |
| 20260507101030 | 72 | 329 | 6.0 | 9.0 | 0.00 | 0.00 | 0.00 | 53 | 1013.8 |
| 20260507100529 | 72 | 324 | 6.0 | 12.0 | 0.00 | 0.00 | 0.00 | 53 | 1013.8 |
| 20260507095528 | 72 | 24 | 5.0 | 9.0 | 0.00 | 0.00 | 0.00 | 54 | 1013.8 |
| 20260507095030 | 73 | 60 | 5.0 | 14.0 | 0.00 | 0.00 | 0.00 | 54 | 1013.7 |
| 20260507094528 | 73 | 29 | 6.0 | 12.0 | 0.00 | 0.00 | 0.00 | 54 | 1013.8 |
| 20260507094030 | 73 | 358 | 6.0 | 10.0 | 0.00 | 0.00 | 0.00 | 54 | 1013.7 |
| 20260507093531 | 73 | 22 | 0.0 | 7.0 | 0.00 | 0.00 | 0.00 | 54 | 1013.6 |
| 20260507093030 | 72 | 288 | 0.0 | 3.0 | 0.00 | 0.00 | 0.00 | 54 | 1013.7 |
| 20260507092528 | 72 | 222 | 0.0 | 0.0 | 0.00 | 0.00 | 0.00 | 54 | 1013.7 |
| 20260507092030 | 72 | 266 | 1.0 | 6.0 | 0.00 | 0.00 | 0.00 | 53 | 1013.5 |
| 20260507091528 | 72 | 202 | 1.0 | 8.0 | 0.00 | 0.00 | 0.00 | 54 | 1013.5 |
| 20260507091030 | 72 | 310 | 5.0 | 10.0 | 0.00 | 0.00 | 0.00 | 54 | 1013.6 |
| 20260507090528 | 72 | 346 | 5.0 | 10.0 | 0.00 | 0.00 | 0.00 | 54 | 1013.5 |
| 20260507090030 | 72 | 274 | 2.0 | 6.0 | 0.00 | 0.00 | 0.00 | 55 | 1013.5 |
| 20260507085529 | 72 | 278 | 0.0 | 6.0 | 0.00 | 0.00 | 0.00 | 55 | 1013.6 |
| 20260507084529 | 72 | 319 | 1.0 | 5.0 | 0.00 | 0.00 | 0.00 | 56 | 1013.6 |
| 20260507083529 | 71 | 338 | 1.0 | 3.0 | 0.00 | 0.00 | 0.00 | 56 | 1013.5 |
| 20260507083033 | 71 | 319 | 2.0 | 3.0 | 0.00 | 0.00 | 0.00 | 56 | 1013.4 |
| 20260507082033 | 70 | 254 | 1.0 | 8.0 | 0.00 | 0.00 | 0.00 | 56 | 1013.3 |
| 20260507081528 | 70 | 323 | 3.0 | 5.0 | 0.00 | 0.00 | 0.00 | 57 | 1013.4 |
| 20260507081030 | 70 | 221 | 3.0 | 6.0 | 0.00 | 0.00 | 0.00 | 57 | 1013.3 |
| 20260507080528 | 70 | 278 | 2.0 | 6.0 | 0.00 | 0.00 | 0.00 | 57 | 1013.3 |
| 20260507075529 | 70 | 291 | 1.0 | 9.0 | 0.00 | 0.00 | 0.00 | 59 | 1013.3 |
| 20260507075033 | 69 | 265 | 2.0 | 5.0 | 0.00 | 0.00 | 0.00 | 61 | 1013.3 |
| 20260507074529 | 69 | 188 | 4.0 | 7.0 | 0.00 | 0.00 | 0.00 | 62 | 1013.3 |
| 20260507074030 | 68 | 144 | 1.0 | 2.0 | 0.00 | 0.00 | 0.00 | 63 | 1013.2 |
| 20260507073528 | 68 | 6 | 0.0 | 1.0 | 0.00 | 0.00 | 0.00 | 64 | 1013.3 |
| 20260507073030 | 67 | 208 | 2.0 | 3.0 | 0.00 | 0.00 | 0.00 | 64 | 1013.3 |
| 20260507072528 | 67 | 244 | 2.0 | 5.0 | 0.00 | 0.00 | 0.00 | 65 | 1013.4 |
| 20260507070528 | 65 | 144 | 1.0 | 3.0 | 0.00 | 0.00 | 0.00 | 72 | 1013.4 |
| 20260507070030 | 64 | 315 | 1.0 | 3.0 | 0.00 | 0.00 | 0.00 | 74 | 1013.3 |
| 20260507065537 | 64 | 237 | 2.0 | 7.0 | 0.00 | 0.00 | 0.00 | 75 | 1013.3 |
| 20260507065033 | 63 | 91 | 0.0 | 1.0 | 0.00 | 0.00 | 0.00 | 77 | 1013.3 |
| 20260507064030 | 61 | 78 | 0.0 | 3.0 | 0.00 | 0.00 | 0.00 | 79 | 1013.2 |
| 20260507063528 | 61 | 72 | 0.0 | 0.0 | 0.00 | 0.00 | 0.00 | 79 | 1013.3 |
| 20260507063030 | 60 | 354 | 0.0 | 0.0 | 0.00 | 0.00 | 0.00 | 78 | 1013.2 |
| 20260507062029 | 60 | 171 | 1.0 | 3.0 | 0.00 | 0.00 | 0.00 | 79 | 1013.2 |
| 20260507061528 | 60 | 316 | 0.0 | 0.0 | 0.00 | 0.00 | 0.00 | 80 | 1013.3 |
| 20260507061031 | 60 | 315 | 98.0 | 110.0 | 0.00 | 0.00 | 0.00 | 80 | 1013.2 |
| 20260507055031 | 58 | 169 | 110.0 | 110.0 | 0.00 | 0.00 | 0.00 | 81 | 1013.0 |
| 20260507054531 | 58 | 172 | 110.0 | 110.0 | 0.00 | 0.00 | 0.00 | 81 | 1013.0 |
| 20260507054031 | 58 | 186 | 110.0 | 110.0 | 0.00 | 0.00 | 0.00 | 81 | 1013.1 |
| 20260507053529 | 58 | 310 | 110.0 | 110.0 | 0.00 | 0.00 | 0.00 | 81 | 1012.9 |
| 20260507053030 | 58 | 299 | 110.0 | 110.0 | 0.00 | 0.00 | 0.00 | 81 | 1013.0 |
| 20260507052529 | 58 | 295 | 110.0 | 110.0 | 0.00 | 0.00 | 0.00 | 81 | 1012.9 |
| 20260507051529 | 58 | 316 | 110.0 | 110.0 | 0.00 | 0.00 | 0.00 | 81 | 1012.7 |
| 20260507050529 | 58 | 232 | 110.0 | 110.0 | 0.00 | 0.00 | 0.00 | 82 | 1012.8 |
| 20260507050030 | 58 | 304 | 110.0 | 110.0 | 0.00 | 0.00 | 0.00 | 82 | 1012.7 |
| 20260507045528 | 58 | 202 | 110.0 | 110.0 | 0.00 | 0.00 | 0.00 | 82 | 1012.7 |
| 20260507044529 | 58 | 263 | 110.0 | 110.0 | 0.00 | 0.02 | 0.00 | 83 | 1012.6 |
| 20260507044030 | 58 | 269 | 110.0 | 110.0 | 0.00 | 0.02 | 0.00 | 83 | 1012.4 |
| 20260507043529 | 58 | 292 | 110.0 | 110.0 | 0.00 | 0.02 | 0.00 | 83 | 1012.3 |
| 20260507043031 | 58 | 315 | 110.0 | 110.0 | 0.00 | 0.02 | 0.00 | 83 | 1012.3 |
| 20260507042031 | 58 | 9 | 110.0 | 110.0 | 0.00 | 0.02 | 0.00 | 82 | 1012.3 |
| 20260507041529 | 58 | 287 | 110.0 | 110.0 | 0.00 | 0.02 | 0.00 | 83 | 1012.3 |
| 20260507041030 | 58 | 283 | 108.0 | 110.0 | 0.00 | 0.02 | 0.00 | 83 | 1012.1 |
| 20260507040529 | 57 | 311 | 37.0 | 66.0 | 0.00 | 0.02 | 0.00 | 82 | 1012.0 |
| 20260507040030 | 57 | 313 | 37.0 | 66.0 | 0.00 | 0.02 | 0.00 | 82 | 1012.0 |
| 20260507035533 | 57 | 315 | 3.0 | 47.0 | 0.00 | 0.02 | 0.00 | 82 | 1012.1 |
| 20260507035034 | 57 | 294 | 47.0 | 47.0 | 0.00 | 0.02 | 0.00 | 82 | 1012.0 |
| 20260507034532 | 57 | 20 | 0.0 | 0.0 | 0.00 | 0.02 | 0.00 | 82 | 1012.0 |
| 20260507034036 | 57 | 318 | 49.0 | 68.0 | 0.00 | 0.02 | 0.00 | 82 | 1012.0 |
| 20260507033529 | 57 | 315 | 60.0 | 68.0 | 0.00 | 0.02 | 0.00 | 82 | 1012.0 |
| 20260507033031 | 58 | 314 | 86.0 | 110.0 | 0.00 | 0.02 | 0.00 | 81 | 1011.9 |
| 20260507032530 | 58 | 90 | 66.0 | 68.0 | 0.00 | 0.02 | 0.00 | 81 | 1012.0 |
| 20260507032032 | 58 | 180 | 68.0 | 110.0 | 0.00 | 0.02 | 0.00 | 81 | 1011.9 |
| 20260507031530 | 58 | 311 | 44.0 | 68.0 | 0.00 | 0.02 | 0.00 | 81 | 1011.8 |
| 20260507031030 | 58 | 158 | 0.0 | 13.0 | 0.00 | 0.02 | 0.00 | 81 | 1012.0 |
| 20260507030530 | 58 | 271 | 0.0 | 0.0 | 0.00 | 0.02 | 0.00 | 81 | 1012.0 |
| 20260507030030 | 58 | 263 | 1.0 | 26.0 | 0.00 | 0.02 | 0.00 | 80 | 1011.9 |
| 20260507025529 | 59 | 180 | 3.0 | 26.0 | 0.00 | 0.02 | 0.00 | 80 | 1012.0 |
| 20260507025031 | 59 | 187 | 0.0 | 26.0 | 0.00 | 0.02 | 0.00 | 80 | 1012.0 |
| 20260507024529 | 59 | 283 | 0.0 | 26.0 | 0.00 | 0.02 | 0.00 | 80 | 1012.0 |
| 20260507024032 | 59 | 220 | 3.0 | 26.0 | 0.00 | 0.02 | 0.00 | 80 | 1012.0 |
| 20260507023534 | 59 | 322 | 10.0 | 26.0 | 0.00 | 0.02 | 0.00 | 80 | 1011.9 |
| 20260507023030 | 59 | 316 | 12.0 | 26.0 | 0.00 | 0.02 | 0.00 | 80 | 1011.7 |
| 20260507022529 | 59 | 292 | 0.0 | 0.0 | 0.00 | 0.02 | 0.00 | 80 | 1011.8 |
| 20260507022039 | 59 | 316 | 0.0 | 0.0 | 0.00 | 0.02 | 0.00 | 80 | 1011.9 |
| 20260507021530 | 60 | 135 | 0.0 | 0.0 | 0.00 | 0.02 | 0.00 | 79 | 1012.0 |
| 20260507021030 | 60 | 313 | 1.0 | 2.0 | 0.00 | 0.02 | 0.00 | 79 | 1012.0 |
| 20260507020529 | 60 | 349 | 0.0 | 2.0 | 0.00 | 0.02 | 0.00 | 79 | 1012.0 |
| 20260507020031 | 60 | 316 | 1.0 | 1.0 | 0.00 | 0.02 | 0.00 | 79 | 1012.0 |
| 20260507015529 | 60 | 324 | 0.0 | 0.0 | 0.00 | 0.02 | 0.00 | 79 | 1011.9 |
| 20260507015031 | 60 | 180 | 1.0 | 1.0 | 0.00 | 0.02 | 0.00 | 78 | 1011.9 |
| 20260507014030 | 60 | 308 | 0.0 | 2.0 | 0.00 | 0.02 | 0.00 | 78 | 1012.0 |
| 20260507013529 | 60 | 326 | 0.0 | 2.0 | 0.00 | 0.02 | 0.00 | 78 | 1012.0 |
| 20260507013030 | 60 | 173 | 1.0 | 2.0 | 0.00 | 0.02 | 0.00 | 78 | 1011.9 |
| 20260507012529 | 60 | 303 | 0.0 | 0.0 | 0.00 | 0.02 | 0.00 | 78 | 1012.1 |
| 20260507012030 | 60 | 303 | 0.0 | 0.0 | 0.00 | 0.02 | 0.00 | 77 | 1011.8 |
| 20260507011529 | 60 | 334 | 0.0 | 1.0 | 0.00 | 0.02 | 0.00 | 77 | 1011.8 |
| 20260507011031 | 60 | 89 | 2.0 | 2.0 | 0.00 | 0.02 | 0.00 | 77 | 1011.9 |
| 20260507010529 | 60 | 40 | 0.0 | 2.0 | 0.00 | 0.02 | 0.00 | 77 | 1011.8 |
| 20260507010031 | 61 | 319 | 0.0 | 0.0 | 0.00 | 0.02 | 0.00 | 76 | 1011.8 |
| 20260507005030 | 61 | 334 | 0.0 | 0.0 | 0.00 | 0.02 | 0.00 | 76 | 1012.0 |
| 20260507004529 | 61 | 316 | 0.0 | 0.0 | 0.00 | 0.02 | 0.00 | 76 | 1011.7 |
| 20260507004031 | 61 | 328 | 0.0 | 0.0 | 0.00 | 0.02 | 0.00 | 76 | 1012.0 |
| 20260507003543 | 61 | 344 | 0.0 | 0.0 | 0.00 | 0.02 | 0.00 | 76 | 1011.9 |
| 20260507003030 | 61 | 45 | 0.0 | 3.0 | 0.00 | 0.02 | 0.00 | 76 | 1011.9 |
| 20260507002531 | 61 | 134 | 1.0 | 1.0 | 0.00 | 0.02 | 0.00 | 75 | 1012.0 |
| 20260507002030 | 61 | 51 | 0.0 | 0.0 | 0.00 | 0.02 | 0.00 | 75 | 1011.9 |
| 20260507001543 | 62 | 292 | 0.0 | 0.0 | 0.00 | 0.02 | 0.00 | 75 | 1012.0 |
| 20260507000533 | 62 | 315 | 0.0 | 0.0 | 0.00 | 0.02 | 0.00 | 75 | 1012.1 |
| 20260507000030 | 62 | 84 | 0.0 | 0.0 | 0.00 | 0.02 | 0.00 | 75 | 1012.1 |
| 20260506235530 | 62 | 22 | 0.0 | 0.0 | 0.00 | 0.02 | 0.00 | 75 | 1012.0 |
| 20260506234529 | 62 | 248 | 0.0 | 1.0 | 0.00 | 0.02 | 0.00 | 74 | 1012.0 |
| 20260506234030 | 62 | 278 | 2.0 | 3.0 | 0.00 | 0.02 | 0.00 | 74 | 1012.0 |
| 20260506233529 | 62 | 309 | 2.0 | 3.0 | 0.00 | 0.02 | 0.00 | 74 | 1012.0 |
| 20260506233031 | 62 | 318 | 0.0 | 6.0 | 0.00 | 0.02 | 0.00 | 74 | 1012.0 |
| 20260506232529 | 62 | 325 | 1.0 | 5.0 | 0.00 | 0.02 | 0.00 | 74 | 1012.0 |
| 20260506232032 | 62 | 315 | 1.0 | 9.0 | 0.00 | 0.02 | 0.00 | 75 | 1011.7 |
| 20260506231529 | 62 | 315 | 5.0 | 9.0 | 0.00 | 0.02 | 0.00 | 75 | 1011.7 |
| 20260506231030 | 62 | 277 | 1.0 | 5.0 | 0.00 | 0.02 | 0.00 | 75 | 1011.9 |
| 20260506230030 | 63 | 313 | 3.0 | 6.0 | 0.00 | 0.02 | 0.00 | 74 | 1011.7 |
| 20260506225031 | 63 | 273 | 2.0 | 2.0 | 0.00 | 0.02 | 0.00 | 72 | 1012.0 |
| 20260506224530 | 63 | 289 | 2.0 | 3.0 | 0.00 | 0.02 | 0.00 | 73 | 1011.9 |
| 20260506223031 | 62 | 211 | 2.0 | 3.0 | 0.00 | 0.02 | 0.00 | 75 | 1011.7 |
| 20260506222529 | 62 | 190 | 0.0 | 0.0 | 0.00 | 0.02 | 0.00 | 75 | 1011.8 |
| 20260506222031 | 62 | 150 | 0.0 | 0.0 | 0.00 | 0.02 | 0.00 | 75 | 1011.8 |
| 20260506221529 | 62 | 135 | 0.0 | 0.0 | 0.00 | 0.02 | 0.00 | 75 | 1011.8 |
| 20260506221030 | 62 | 158 | 0.0 | 0.0 | 0.00 | 0.02 | 0.00 | 75 | 1011.9 |
| 20260506220533 | 62 | 158 | 0.0 | 0.0 | 0.00 | 0.02 | 0.00 | 75 | 1011.9 |
| 20260506220031 | 62 | 292 | 0.0 | 0.0 | 0.00 | 0.02 | 0.00 | 75 | 1011.9 |
| 20260506215039 | 62 | 315 | 1.0 | 2.0 | 0.00 | 0.02 | 0.02 | 76 | 1011.8 |
| 20260506214529 | 62 | 338 | 0.0 | 2.0 | 0.00 | 0.02 | 0.02 | 76 | 1011.9 |
| 20260506213529 | 62 | 315 | 2.0 | 2.0 | 0.00 | 0.02 | 0.02 | 76 | 1011.9 |
| 20260506213034 | 62 | 22 | 1.0 | 2.0 | 0.00 | 0.02 | 0.02 | 76 | 1011.9 |
| 20260506212529 | 62 | 29 | 0.0 | 2.0 | 0.00 | 0.02 | 0.02 | 76 | 1012.1 |
| 20260506212030 | 62 | 24 | 1.0 | 2.0 | 0.00 | 0.02 | 0.02 | 76 | 1012.0 |
| 20260506211030 | 62 | 22 | 0.0 | 0.0 | 0.00 | 0.02 | 0.02 | 76 | 1011.9 |
| 20260506210533 | 62 | 106 | 0.0 | 1.0 | 0.00 | 0.02 | 0.02 | 76 | 1011.8 |
| 20260506210034 | 62 | 225 | 0.0 | 3.0 | 0.00 | 0.02 | 0.02 | 76 | 1011.8 |
| 20260506205530 | 62 | 130 | 1.0 | 3.0 | 0.00 | 0.02 | 0.02 | 76 | 1012.0 |
| 20260506205030 | 62 | 140 | 1.0 | 2.0 | 0.00 | 0.02 | 0.02 | 76 | 1012.0 |
| 20260506204529 | 62 | 135 | 0.0 | 3.0 | 0.00 | 0.02 | 0.02 | 76 | 1012.0 |
| 20260506203530 | 62 | 129 | 3.0 | 7.0 | 0.00 | 0.02 | 0.02 | 76 | 1011.9 |
| 20260506203030 | 62 | 135 | 7.0 | 9.0 | 0.00 | 0.02 | 0.02 | 76 | 1011.8 |
| 20260506201529 | 63 | 152 | 3.0 | 5.0 | 0.00 | 0.02 | 0.02 | 75 | 1011.7 |
| 20260506201031 | 63 | 112 | 1.0 | 2.0 | 0.00 | 0.02 | 0.02 | 75 | 1011.7 |
| 20260506200033 | 63 | 111 | 0.0 | 0.0 | 0.00 | 0.02 | 0.02 | 74 | 1011.7 |
| 20260506195036 | 63 | 135 | 0.0 | 0.0 | 0.00 | 0.04 | 0.02 | 74 | 1011.7 |
| 20260506194532 | 63 | 135 | 0.0 | 0.0 | 0.00 | 0.04 | 0.02 | 74 | 1011.7 |
| 20260506194031 | 63 | 135 | 0.0 | 2.0 | 0.00 | 0.04 | 0.02 | 73 | 1011.6 |
| 20260506193032 | 63 | 139 | 0.0 | 1.0 | 0.00 | 0.04 | 0.02 | 73 | 1011.6 |